Regional Weather Roundup
Issued by NWS Goodland, KS

Home | Current Version | Previous Version | Graphics & Text | Print | Product List | Glossary On
Versions: 1 2 3 4 5 6 7 8 9 10 11 12 13 14 15 16 17 18 19 20 21 22 23 24 25 26 27 28 29 30 31 32 33 34 35 36 37 38 39 40 41 42 43 44 45 46 47 48 49 50
000
ASUS43 KGLD 172308
RWRGLD

GOODLAND FORECAST AREA HOURLY WEATHER ROUNDUP
NATIONAL WEATHER SERVICE GOODLAND KS
500 PM MDT FRI APR 17 2015

...OFFICIAL OBSERVATIONS...

CITY           SKY/WX    TMP DP  RH WIND       PRES   REMARKS
GOODLAND KS    MOSUNNY   65  46  50 SE12      29.92S
HILL CITY KS   PTSUNNY   69  51  52 SE12      29.94R
IMPERIAL NEB   LGT RAIN  61  50  67 SE15      29.94F
MCCOOK NEB     MOSUNNY   69  51  52 E14       29.94F
AKRON CO       TSTM      52  49  89 E7        29.94S
BURLINGTON CO  MOSUNNY   62  47  57 SE18G25   29.91F
LIMON CO       MOSUNNY   57  26  30 S15       29.93S
$$

...UNOFFICIAL OBSERVATIONS...

CITY           SKY/WX    TMP DP  RH WIND       PRES   REMARKS
COLBY KS       CLOUDY    64  54  68 E12       29.93F
GOVE KS          N/A     67  32  27 MISG        N/A
LENORA KS        N/A     69  32  25 MISG        N/A
NORTON KS      MOSUNNY   68  46  45 E13G18    29.94S
SHARON SPRINGS   N/A     65  53  65 MISG        N/A
TRIBUNE KS     MOSUNNY   66  55  68 E8        29.90F
KIT CARSON CO    N/A     62  41  46 MISG        N/A
YUMA CO          N/A     60  45  57 SE18        N/A
$$



USA.gov is the U.S. government's official web portal to all federal, state and local government web resources and services.